EJU59TE EHAM-EGMC

Flight info

Callsign EJU59TE
Flight time N/A
Altitude 20000
Route IDRID L980 XAMAN
Aircraft A319/M-SDE2E3FGIJ1RWXYZ/LB1

Departure

Time 2026-05-04 19:59
Airport Amsterdam Airport Schiphol (EHAM)

Arrival

Time N/A
Airport London Southend Airport (EGMC)
Time Latitude Longitude Altitude Speed Heading
2026-05-04 19:20 52.31065 4.75573 0 ft 0 kts 148°
2026-05-04 19:50 52.31076 4.75562 -1 ft 4 kts 150°
2026-05-04 19:51 52.31100 4.75541 -1 ft 4 kts 140°
2026-05-04 19:51 52.31108 4.75515 -1 ft 4 kts 65°
2026-05-04 19:51 52.31094 4.75478 -1 ft 3 kts 57°
2026-05-04 19:51 52.31092 4.75473 -1 ft 0 kts 58°
2026-05-04 19:53 52.31093 4.75473 -1 ft 0 kts 58°
2026-05-04 19:54 52.31096 4.75481 -1 ft 1 kts 49°
2026-05-04 19:54 52.31103 4.75487 -1 ft 2 kts 31°
2026-05-04 19:54 52.31122 4.75498 -1 ft 4 kts 13°
2026-05-04 19:54 52.31153 4.75497 -1 ft 6 kts 357°
2026-05-04 19:55 52.31206 4.75491 -1 ft 9 kts 356°
2026-05-04 19:55 52.31264 4.75485 -1 ft 9 kts 356°
2026-05-04 19:55 52.31320 4.75481 -1 ft 11 kts 357°
2026-05-04 19:55 52.31402 4.75473 -1 ft 12 kts 357°
2026-05-04 19:56 52.31482 4.75467 -1 ft 11 kts 355°
2026-05-04 19:56 52.31509 4.75365 -1 ft 11 kts 266°
2026-05-04 19:56 52.31504 4.75230 -1 ft 12 kts 268°
2026-05-04 19:56 52.31499 4.75087 -1 ft 13 kts 267°
2026-05-04 19:57 52.31495 4.74939 -1 ft 13 kts 267°
2026-05-04 19:57 52.31489 4.74787 -1 ft 12 kts 266°
2026-05-04 19:57 52.31513 4.74671 -1 ft 11 kts 330°
2026-05-04 19:57 52.31593 4.74659 -1 ft 12 kts 356°
2026-05-04 19:58 52.31659 4.74687 0 ft 7 kts 41°
2026-05-04 19:58 52.31667 4.74753 -1 ft 0 kts 87°
2026-05-04 19:58 52.31667 4.74755 -1 ft 3 kts 87°
2026-05-04 19:58 52.31685 4.75256 -2 ft 85 kts 86°
2026-05-04 19:59 52.31736 4.76597 -1 ft 150 kts 86°
2026-05-04 19:59 52.31788 4.78478 393 ft 169 kts 84°
2026-05-04 19:59 52.31700 4.80417 1093 ft 180 kts 105°
2026-05-04 19:59 52.30787 4.82062 1446 ft 218 kts 151°
2026-05-04 20:00 52.29217 4.82317 2017 ft 240 kts 188°
2026-05-04 20:00 52.27611 4.81586 3102 ft 238 kts 198°
2026-05-04 20:00 52.26073 4.80595 4143 ft 239 kts 210°
2026-05-04 20:00 52.24733 4.78858 4811 ft 258 kts 221°
2026-05-04 20:01 52.23282 4.76980 5575 ft 270 kts 218°
2026-05-04 20:01 52.21753 4.75162 6567 ft 274 kts 217°
2026-05-04 20:01 52.20379 4.72998 7531 ft 277 kts 233°
2026-05-04 20:01 52.19343 4.70341 8514 ft 279 kts 240°
2026-05-04 20:02 52.18344 4.67610 9509 ft 282 kts 239°
2026-05-04 20:02 52.17323 4.64828 10297 ft 293 kts 239°
2026-05-04 20:02 52.16236 4.61869 10684 ft 314 kts 239°
2026-05-04 20:02 52.15092 4.58764 11389 ft 323 kts 239°
2026-05-04 20:03 52.13927 4.55609 12196 ft 328 kts 239°
2026-05-04 20:03 52.12744 4.52398 13014 ft 333 kts 240°
2026-05-04 20:03 52.11571 4.49110 13819 ft 338 kts 244°
2026-05-04 20:03 52.10740 4.45510 14526 ft 341 kts 257°
2026-05-04 20:04 52.10388 4.41695 15264 ft 344 kts 266°
2026-05-04 20:04 52.10196 4.37804 16014 ft 347 kts 265°
2026-05-04 20:04 52.09988 4.33887 16752 ft 349 kts 265°
2026-05-04 20:04 52.09770 4.29921 17493 ft 353 kts 265°
2026-05-04 20:05 52.09546 4.25936 18226 ft 356 kts 265°
2026-05-04 20:05 52.09318 4.21935 18857 ft 359 kts 265°
2026-05-04 20:05 52.09085 4.17892 19525 ft 361 kts 264°
2026-05-04 20:05 52.08849 4.13808 19887 ft 362 kts 265°
2026-05-04 20:06 52.08621 4.09749 19988 ft 357 kts 265°
2026-05-04 20:06 52.08402 4.05827 20010 ft 340 kts 265°
2026-05-04 20:06 52.08189 4.02047 20011 ft 333 kts 264°
2026-05-04 20:06 52.07975 3.98317 20013 ft 331 kts 264°
2026-05-04 20:07 52.07758 3.94583 20018 ft 330 kts 264°
2026-05-04 20:07 52.07540 3.90870 20018 ft 330 kts 264°
2026-05-04 20:07 52.07320 3.87155 20017 ft 330 kts 264°
2026-05-04 20:07 52.06976 3.83484 20021 ft 329 kts 256°
2026-05-04 20:08 52.06249 3.79953 20019 ft 329 kts 251°
2026-05-04 20:08 52.05480 3.76447 20018 ft 329 kts 251°
2026-05-04 20:08 52.04719 3.72948 20020 ft 329 kts 251°
2026-05-04 20:08 52.03959 3.69440 20015 ft 329 kts 251°
2026-05-04 20:09 52.03196 3.65939 20018 ft 329 kts 251°
2026-05-04 20:09 52.02439 3.62473 20015 ft 329 kts 251°
2026-05-04 20:09 52.01671 3.58973 20017 ft 329 kts 251°
2026-05-04 20:09 52.00890 3.55420 20020 ft 329 kts 251°
2026-05-04 20:10 52.00131 3.51968 20016 ft 329 kts 250°
2026-05-04 20:10 51.99134 3.48620 20019 ft 330 kts 238°
2026-05-04 20:10 51.97794 3.45594 20019 ft 330 kts 234°
2026-05-04 20:10 51.96432 3.42594 20020 ft 331 kts 234°
2026-05-04 20:11 51.95075 3.39587 20019 ft 331 kts 234°
2026-05-04 20:11 51.93714 3.36574 20020 ft 331 kts 234°
2026-05-04 20:11 51.92354 3.33568 20020 ft 331 kts 234°
2026-05-04 20:11 51.90990 3.30557 20020 ft 331 kts 234°
2026-05-04 20:12 51.89625 3.27548 20020 ft 331 kts 234°
2026-05-04 20:12 51.88261 3.24542 20017 ft 332 kts 234°
2026-05-04 20:12 51.86893 3.21537 20020 ft 332 kts 234°
2026-05-04 20:12 51.85661 3.18393 20015 ft 331 kts 244°
2026-05-04 20:13 51.84872 3.14902 20018 ft 331 kts 256°
2026-05-04 20:13 51.84535 3.11225 20016 ft 331 kts 264°
2026-05-04 20:13 51.84305 3.07511 20021 ft 331 kts 264°
2026-05-04 20:13 51.84066 3.03804 20020 ft 332 kts 264°
2026-05-04 20:14 51.83824 3.00095 20021 ft 332 kts 263°
2026-05-04 20:14 51.83580 2.96389 20023 ft 332 kts 263°
2026-05-04 20:14 51.83332 2.92684 20024 ft 332 kts 263°
2026-05-04 20:14 51.83083 2.88979 20023 ft 332 kts 263°
2026-05-04 20:15 51.82835 2.85270 20026 ft 331 kts 263°
2026-05-04 20:15 51.82589 2.81567 20026 ft 331 kts 263°
2026-05-04 20:15 51.82343 2.77868 20028 ft 331 kts 263°
2026-05-04 20:15 51.82093 2.74166 20029 ft 331 kts 263°
2026-05-04 20:16 51.81839 2.70462 20033 ft 331 kts 263°
2026-05-04 20:16 51.81583 2.66764 20031 ft 331 kts 263°
2026-05-04 20:16 51.81324 2.63017 20032 ft 331 kts 263°
2026-05-04 20:16 51.81069 2.59322 20032 ft 331 kts 263°
2026-05-04 20:17 51.80815 2.55627 20032 ft 331 kts 263°
2026-05-04 20:17 51.80566 2.51974 20030 ft 331 kts 263°
2026-05-04 20:17 51.80329 2.48225 19994 ft 331 kts 264°
2026-05-04 20:17 51.80110 2.44558 19727 ft 325 kts 264°
2026-05-04 20:18 51.79898 2.40937 19355 ft 323 kts 264°
2026-05-04 20:18 51.79687 2.37340 18963 ft 321 kts 264°
2026-05-04 20:18 51.79479 2.33756 18574 ft 319 kts 264°
2026-05-04 20:18 51.79270 2.30200 18052 ft 317 kts 264°
2026-05-04 20:19 51.79058 2.26649 17575 ft 317 kts 264°
2026-05-04 20:19 51.78845 2.23119 17188 ft 315 kts 264°
2026-05-04 20:19 51.78630 2.19608 16803 ft 313 kts 264°
2026-05-04 20:19 51.78415 2.16113 16427 ft 312 kts 264°
2026-05-04 20:20 51.78202 2.12636 16062 ft 311 kts 264°
2026-05-04 20:20 51.77988 2.09171 15703 ft 310 kts 264°
2026-05-04 20:20 51.77776 2.05715 15350 ft 309 kts 264°
2026-05-04 20:20 51.77561 2.02279 15000 ft 308 kts 264°
2026-05-04 20:21 51.77343 1.98847 14651 ft 306 kts 264°
2026-05-04 20:21 51.77125 1.95434 14305 ft 305 kts 264°
2026-05-04 20:21 51.76694 1.88631 13618 ft 303 kts 264°
2026-05-04 20:22 51.76478 1.85260 13260 ft 302 kts 264°
2026-05-04 20:22 51.76262 1.81896 12908 ft 300 kts 264°
2026-05-04 20:22 51.76047 1.78568 12562 ft 298 kts 264°
2026-05-04 20:22 51.75833 1.75253 12211 ft 296 kts 264°
2026-05-04 20:23 51.75620 1.71966 11865 ft 294 kts 264°
2026-05-04 20:23 51.75409 1.68697 11510 ft 292 kts 264°
2026-05-04 20:23 51.75199 1.65469 11285 ft 286 kts 264°
2026-05-04 20:23 51.74990 1.62338 11148 ft 275 kts 264°
2026-05-04 20:24 51.74789 1.59347 11026 ft 262 kts 264°
2026-05-04 20:24 51.74599 1.56503 10904 ft 249 kts 264°
2026-05-04 20:24 51.74418 1.53789 10781 ft 237 kts 264°
2026-05-04 20:24 51.74245 1.51201 10649 ft 226 kts 264°
2026-05-04 20:25 51.74080 1.48717 10395 ft 222 kts 264°
2026-05-04 20:25 51.73916 1.46250 10099 ft 220 kts 264°
2026-05-04 20:25 51.73761 1.43940 9814 ft 219 kts 264°
2026-05-04 20:25 51.73597 1.41507 9544 ft 217 kts 264°
2026-05-04 20:26 51.73434 1.39094 9265 ft 216 kts 264°
2026-05-04 20:26 51.73270 1.36688 8979 ft 215 kts 264°
2026-05-04 20:26 51.73107 1.34291 8698 ft 214 kts 264°
2026-05-04 20:26 51.72944 1.31919 8371 ft 212 kts 265°
2026-05-04 20:27 51.72780 1.29562 7957 ft 211 kts 265°
2026-05-04 20:27 51.72616 1.27218 7560 ft 210 kts 265°
2026-05-04 20:27 51.72453 1.24879 7172 ft 209 kts 265°
2026-05-04 20:27 51.72290 1.22559 6782 ft 208 kts 266°
2026-05-04 20:28 51.72129 1.20248 6407 ft 207 kts 266°
2026-05-04 20:28 51.71968 1.17954 6000 ft 205 kts 266°
2026-05-04 20:28 51.71808 1.15654 5654 ft 207 kts 265°
2026-05-04 20:28 51.71648 1.13359 5503 ft 207 kts 265°
2026-05-04 20:29 51.71423 1.11056 5368 ft 209 kts 255°
2026-05-04 20:29 51.70805 1.08918 5248 ft 212 kts 243°
2026-05-04 20:29 51.70095 1.06838 5123 ft 212 kts 244°
2026-05-04 20:29 51.69390 1.04753 4996 ft 212 kts 243°
2026-05-04 20:30 51.68684 1.02659 4874 ft 213 kts 243°
2026-05-04 20:30 51.67977 1.00563 4741 ft 212 kts 243°
2026-05-04 20:30 51.67272 0.98477 4618 ft 212 kts 243°
2026-05-04 20:30 51.66569 0.96396 4478 ft 211 kts 243°
2026-05-04 20:31 51.65865 0.94314 4354 ft 211 kts 244°
2026-05-04 20:31 51.65163 0.92239 4226 ft 211 kts 243°
2026-05-04 20:31 51.64698 0.90866 4144 ft 210 kts 243°
2026-05-04 20:31 51.63998 0.88804 4016 ft 210 kts 243°
2026-05-04 20:32 51.63300 0.86744 3889 ft 210 kts 244°
2026-05-04 20:32 51.62599 0.84681 3762 ft 210 kts 244°
2026-05-04 20:32 51.61898 0.82619 3634 ft 209 kts 244°
2026-05-04 20:32 51.61197 0.80563 3507 ft 209 kts 243°
2026-05-04 20:33 51.60495 0.78512 3377 ft 210 kts 244°
2026-05-04 20:33 51.59794 0.76456 3255 ft 210 kts 243°
2026-05-04 20:33 51.59092 0.74400 3128 ft 209 kts 244°
2026-05-04 20:33 51.58391 0.72347 3001 ft 209 kts 243°
2026-05-04 20:34 51.57693 0.70301 2871 ft 208 kts 244°
2026-05-04 20:34 51.57079 0.68234 2736 ft 201 kts 248°
2026-05-04 20:34 51.56522 0.66190 2602 ft 197 kts 249°
2026-05-04 20:34 51.55983 0.64166 2480 ft 196 kts 249°
2026-05-04 20:35 51.55448 0.62153 2350 ft 196 kts 249°
2026-05-04 20:35 51.54912 0.60140 2216 ft 197 kts 249°
2026-05-04 20:35 51.54370 0.58118 2115 ft 197 kts 248°
2026-05-04 20:35 51.53824 0.56095 2032 ft 197 kts 248°
2026-05-04 20:36 51.53280 0.54085 2033 ft 197 kts 248°
2026-05-04 20:36 51.52733 0.52065 2038 ft 197 kts 248°
2026-05-04 20:36 51.52186 0.50047 2036 ft 197 kts 248°
2026-05-04 20:36 51.51639 0.48031 2031 ft 197 kts 248°
2026-05-04 20:37 51.51093 0.46016 2030 ft 197 kts 248°
2026-05-04 20:37 51.50289 0.44275 2029 ft 197 kts 213°
2026-05-04 20:37 51.48995 0.43704 2031 ft 194 kts 172°
2026-05-04 20:37 51.47803 0.44546 2033 ft 188 kts 131°
2026-05-04 20:38 51.47252 0.46365 2033 ft 181 kts 91°
2026-05-04 20:38 51.47525 0.48274 2034 ft 177 kts 57°
2026-05-04 20:38 51.48230 0.49835 2077 ft 165 kts 52°
2026-05-04 20:38 51.48898 0.51303 2035 ft 164 kts 53°
2026-05-04 20:39 51.49568 0.52780 2027 ft 163 kts 53°
2026-05-04 20:39 51.50235 0.54251 2028 ft 163 kts 53°
2026-05-04 20:39 51.50909 0.55742 2031 ft 163 kts 53°
2026-05-04 20:39 51.51568 0.57196 1984 ft 164 kts 52°
2026-05-04 20:40 51.52229 0.58660 1802 ft 158 kts 53°
2026-05-04 20:40 51.52838 0.60008 1586 ft 139 kts 53°
2026-05-04 20:40 51.53377 0.61203 1381 ft 127 kts 53°
2026-05-04 20:40 51.53885 0.62327 1191 ft 122 kts 54°
2026-05-04 20:41 51.54383 0.63431 988 ft 122 kts 54°
2026-05-04 20:41 51.54882 0.64535 787 ft 122 kts 56°
2026-05-04 20:41 51.55383 0.65629 530 ft 121 kts 56°
2026-05-04 20:41 51.55857 0.66738 418 ft 121 kts 56°
2026-05-04 20:42 51.56361 0.67818 201 ft 120 kts 56°
2026-05-04 20:42 51.56846 0.68925 131 ft 132 kts 55°
2026-05-04 20:42 51.57405 0.70221 793 ft 147 kts 58°
2026-05-04 20:42 51.57977 0.71589 1594 ft 153 kts 56°
2026-05-04 20:43 51.58583 0.73148 1938 ft 178 kts 57°
2026-05-04 20:43 51.59238 0.74876 2027 ft 186 kts 57°
2026-05-04 20:43 51.59912 0.76668 2030 ft 188 kts 57°
2026-05-04 20:43 51.60585 0.78474 2033 ft 189 kts 57°
2026-05-04 20:44 51.61261 0.80291 2035 ft 189 kts 57°
2026-05-04 20:44 51.61962 0.82082 2035 ft 189 kts 52°
2026-05-04 20:44 51.62884 0.83551 2030 ft 188 kts 28°
2026-05-04 20:44 51.64155 0.83973 2035 ft 190 kts 356°
2026-05-04 20:45 51.65376 0.83193 2032 ft 194 kts 324°
2026-05-04 20:45 51.66147 0.81401 2034 ft 201 kts 290°
2026-05-04 20:45 51.66143 0.79137 2033 ft 209 kts 252°
2026-05-04 20:45 51.65284 0.77274 2042 ft 212 kts 215°
2026-05-04 20:46 51.64016 0.76062 2040 ft 212 kts 210°
2026-05-04 20:46 51.62743 0.74872 2034 ft 212 kts 210°
2026-05-04 20:46 51.61473 0.73679 2037 ft 212 kts 210°
2026-05-04 20:46 51.60200 0.72479 2034 ft 212 kts 210°
2026-05-04 20:47 51.58929 0.71282 2037 ft 212 kts 210°
2026-05-04 20:47 51.57662 0.70078 2034 ft 211 kts 212°
2026-05-04 20:47 51.56630 0.68421 2052 ft 211 kts 233°
2026-05-04 20:47 51.55746 0.66538 2041 ft 211 kts 235°
2026-05-04 20:48 51.54904 0.64612 2032 ft 211 kts 236°
2026-05-04 20:48 51.54061 0.62678 2036 ft 211 kts 236°
2026-05-04 20:48 51.53209 0.60749 2037 ft 212 kts 235°
2026-05-04 20:48 51.52400 0.58781 2022 ft 211 kts 247°
2026-05-04 20:49 51.52082 0.56580 2032 ft 198 kts 271°
2026-05-04 20:49 51.52190 0.54406 2047 ft 194 kts 278°
2026-05-04 20:49 51.52306 0.52251 2036 ft 193 kts 277°
2026-05-04 20:49 51.52414 0.50107 2036 ft 193 kts 277°
2026-05-04 20:50 51.52394 0.47977 2060 ft 186 kts 256°
2026-05-04 20:50 51.51692 0.46255 2034 ft 187 kts 218°
2026-05-04 20:50 51.50503 0.45536 2025 ft 184 kts 180°
2026-05-04 20:50 51.49300 0.46019 2032 ft 178 kts 146°
2026-05-04 20:51 51.48495 0.47455 2038 ft 173 kts 112°
2026-05-04 20:51 51.48316 0.49303 2034 ft 168 kts 80°
2026-05-04 20:51 51.48744 0.50972 2034 ft 164 kts 53°
2026-05-04 20:51 51.49417 0.52449 2032 ft 163 kts 53°
2026-05-04 20:52 51.50085 0.53921 2037 ft 163 kts 52°
2026-05-04 20:52 51.50747 0.55384 2033 ft 163 kts 53°
2026-05-04 20:52 51.51415 0.56858 2016 ft 163 kts 52°
2026-05-04 20:52 51.52082 0.58332 1850 ft 163 kts 53°
2026-05-04 20:53 51.52742 0.59795 1620 ft 158 kts 53°
2026-05-04 20:53 51.53344 0.61127 1395 ft 138 kts 53°
2026-05-04 20:53 51.53877 0.62308 1188 ft 126 kts 54°
2026-05-04 20:53 51.54384 0.63432 984 ft 122 kts 53°
2026-05-04 20:54 51.54880 0.64532 782 ft 121 kts 56°
2026-05-04 20:54 51.55376 0.65624 598 ft 120 kts 54°
2026-05-04 20:54 51.55875 0.66704 419 ft 120 kts 57°
2026-05-04 20:54 51.56362 0.67787 222 ft 119 kts 56°
2026-05-04 20:55 51.56819 0.68877 60 ft 108 kts 51°